Regional Weather Roundup
Issued by NWS

Home | Current Version | Previous Version | Graphics & Text | Print | Product List | Glossary On
Versions: 1 2 3 4 5 6 7 8 9 10 11 12 13 14 15 16 17 18 19 20 21 22 23 24 25 26 27 28 29 30 31 32 33 34 35 36 37 38 39 40 41 42 43 44 45 46 47 48 49 50
845
ASUS44 KJAN 181603
RWRMS

MISSISSIPPI HOURLY WEATHER ROUNDUP
NATIONAL WEATHER SERVICE JACKSON MS
1100 AM CDT THU SEP 18 2014

NOTE: "FAIR: INDICATES FEW OR NO CLOUDS BELOW 12,000 FEET WITH NO
SIGNIFICANT WEATHER AND/OR OBSTRUCTIONS TO VISIBILITY.

MSZ001>002-007>008-010>013-018>021-025>028-034>036-181700-
NORTHWEST MISSISSIPPI

CITY           SKY/WX    TMP DP  RH WIND       PRES   REMARKS
CLARKSDALE     FAIR      77  72  83 CALM      29.96S
CLEVELAND      FAIR      87  73  64 S3        29.94F HX  94
GREENWOOD      MOSUNNY   85  71  63 SW7       29.96S HX  90
GREENVILLE     SUNNY     87  71  58 SW7       29.94F HX  93
GRENADA        FAIR      81  68  65 SE3       29.97F
OLIVE BRANCH   PTSUNNY   75  70  83 E7        29.99S
OXFORD         FAIR      70  63  78 SE5       30.01R
TUNICA         PTSUNNY   79  68  69 CALM      29.97F
$$

MSZ003>006-009-014>017-022>024-029>033-037>039-181700-
NORTHEAST MISSISSIPPI

CITY           SKY/WX    TMP DP  RH WIND       PRES   REMARKS
COLUMBUS AFB   NOT AVBL
CORINTH        FAIR      75  61  60 CALM      29.99F
GOLDN TRIANGLE SUNNY     81  59  47 SE7       30.00R
STARKVILLE     FAIR      79  63  57 E5        29.99F
TUPELO         CLOUDY    72  58  61 SE5       30.00R
$$

MSZ040-058-181700-
CENTRAL MISSISSIPPI

CITY           SKY/WX    TMP DP  RH WIND       PRES   REMARKS
JACKSON INTL   CLOUDY    83  70  64 S7        29.96F
JACKSON HAWKNS CLOUDY    83  70  64 CALM      29.96F
MERIDIAN KEY   MOSUNNY   83  65  54 E3        29.97F
MERIDIAN NAS   MOSUNNY   83  64  52 E6        29.98S
RAYMOND        FAIR      82  77  83 CALM      29.96F HX  91
VICKSBURG      CLOUDY    85  73  67 CALM      29.95F HX  91
$$

MSZ059>079-181700-
SOUTH MISSISSIPPI

CITY           SKY/WX    TMP DP  RH WIND       PRES   REMARKS
BROOKHAVEN     FAIR      81  73  78 CALM      29.99R
COLUMBIA       FAIR      81  73  78 CALM      29.95S
HATTIESBURG    PTSUNNY   84  71  65 CALM      29.97S
MCCOMB         CLOUDY    78  73  84 CALM      29.96S
NATCHEZ        CLOUDY    79  75  89 CALM      29.96S
PINE BELT      PTSUNNY   82  70  65 CALM      29.99R
$$

MSZ080>082-181700-
COASTAL MISSISSIPPI

CITY           SKY/WX    TMP DP  RH WIND       PRES   REMARKS
BAY ST LOUIS   MOSUNNY   86  70  58 CALM      29.94F HX  90
BILOXI         NOT AVBL
PASCAGOULA     PTSUNNY   87  74  64 VRB5      29.95R HX  95
GULFPORT       MOSUNNY   86  71  60 SE3       29.93F HX  91
$$



USA.gov is the U.S. government's official web portal to all federal, state and local government web resources and services.